Location: Quedlinburg
(51.7921°N, 11.1414°E)
Time: 07:52:29
(UTC+02:00)

SO-50 - Pass Details

Date: 08 March 2026
Orbit: 567 x 673 km, 64.6° (Epoch: 13 April)

Event Time Altitude Azimuth Distance (km) Brightness Sun altitude
Exits shadow 04:45:35 36° 287° (WNW) 1,074 ? -19.2°
Maximum altitude 04:47:09 51° 236° (SW) 850 ? -19.0°
Drops below altitude 10° 04:51:44 10° 161° (SSE) 2,079 ? -18.3°
Sets 04:54:04 0° 156° (SSE) 2,975 ? -18.0°
